Theta_e
335 332 332 336 334 330 331 332 331 330 330 329 328 321 321 331 333 336 336 335 333 327 326 327 325 321 321 319 319 322 327 330 330
334 333 333 332 331 332 332 332 331 330 329 329 329 326 327 332 331 332 334 333 333 334 330 326 323 324 325 322 324 324 326 325 328
334 332 329 332 332 332 332 332 331 331 329 328 328 330 330 335 335 330 329 331 333 334 330 324 324 324 329 328 326 323 322 319 320
329 329 331 332 333 333 333 333 333 331 330 329 329 329 331 335 334 332 332 329 330 328 328 328 326 325 327 328 328 327 327 324 323
328 329 329 328 326 330 331 332 331 329 328 328 329 328 329 332 332 332 330 330 330 330 330 329 329 326 326 327 327 327 327 327 325
329 328 328 328 328 328 329 329 329 328 327 327 327 327 327 329 329 329 329 329 329 329 328 329 329 328 328 328 327 327 328 329 329
330 329 330 330 328 327 327 328 329 328 328 328 327 326 328 329 330 329 329 328 328 328 328 328 329 329 329 329 329 329 329 329 329
329 328 329 331 329 328 328 329 329 329 328 328 327 326 327 329 329 329 330 329 329 329 328 328 328 328 328 328 328 328 328 328 327
327 327 328 328 328 328 330 330 330 329 329 328 328 326 326 327 328 328 328 328 328 327 327 327 326 326 326 325 325 325 326 327 327
325 325 327 327 327 328 329 329 329 329 328 328 327 327 326 326 326 326 326 326 326 325 324 323 323 323 322 321 320 322 322 323 324
324 325 325 326 327 328 329 329 328 328 327 326 325 325 325 325 325 324 323 323 322 321 320 320 322 322 321 322 321 321 320 320 321
325 325 324 325 325 326 327 327 327 326 325 325 325 323 323 322 324 324 323 322 320 318 316 317 319 321 321 316 314 316 317 316 318
324 324 325 325 325 325 323 324 323 324 323 323 321 319 319 318 319 320 321 320 318 319 313 313 316 316 310 306 304 303 302 302 304
322 322 322 323 323 322 320 321 322 321 319 319 317 314 314 316 316 316 317 317 317 315 314 313 306 303 306 305 305 304 303 301 300
320 319 319 320 321 321 319 316 315 315 314 311 305 301 300 299 299 302 304 304 301 297 295 295 296 296 302 303 304 303 302 302 302
318 318 317 316 317 318 315 314 314 311 308 308 298 295 294 294 293 293 293 293 293 293 293 293 293 293 294 296 300 301 301 300 300
315 315 315 314 311 311 311 311 311 307 304 304 299 291 291 291 291 291 291 292 292 292 292 292 292 292 293 293 292 293 297 298 299
309 308 309 308 306 307 307 307 308 309 304 301 298 293 293 290 289 290 290 291 291 291 292 292 292 292 292 291 291 291 291 293 296
304 306 303 303 303 302 303 304 303 305 304 300 296 296 295 292 289 289 289 290 290 291 291 291 291 291 291 292 291 291 291 291 291
299 299 299 300 300 299 300 300 299 299 298 296 295 294 295 293 292 289 289 289 289 290 290 290 290 290 290 291 291 290 290 290 289
Wind_Speed
24 27 22 23 24 23 23 24 24 23 22 23 22 23 23 20 17 16 19 18 21 21 21 18 12 12 16 19 20 20 22 20 18
23 26 25 21 19 21 23 25 24 23 23 23 22 21 21 17 17 15 14 18 20 20 19 16 16 16 19 24 22 23 22 19 17
20 19 20 23 26 26 26 23 23 23 22 21 20 20 18 17 16 18 17 17 19 19 16 16 17 17 19 20 21 21 20 20 20
23 23 24 24 24 25 23 23 22 21 21 21 20 19 19 18 16 16 18 17 16 15 16 16 16 17 18 19 18 18 16 17 18
24 25 24 24 21 19 19 22 21 21 20 20 20 18 17 15 14 14 16 16 17 17 16 16 15 16 16 17 17 16 15 14 15
23 23 22 25 25 22 21 20 21 19 19 19 18 17 17 18 16 15 16 16 18 18 18 18 17 15 15 14 13 13 12 12 11
26 26 28 27 27 25 22 24 22 21 21 20 19 16 19 22 18 18 19 21 22 22 21 21 21 20 19 17 16 13 11 10 10
27 30 30 30 28 26 25 25 24 24 24 23 19 19 21 23 24 20 21 21 22 21 20 20 20 20 19 17 15 15 13 12 10
25 28 31 30 26 24 26 28 28 26 25 24 21 21 22 24 26 24 19 20 19 18 16 17 16 15 15 14 13 12 12 13 15
27 27 27 28 26 26 30 30 28 26 23 22 22 25 26 27 28 30 23 22 19 16 14 14 10 8 9 10 9 12 11 10 9
26 26 27 28 28 27 28 29 28 26 25 23 23 24 24 25 28 27 26 22 19 19 18 12 11 9 7 7 8 8 9 9 9
26 26 26 27 28 29 29 28 28 27 27 25 26 27 27 29 28 26 24 21 21 14 11 10 8 6 6 3 4 5 6 6 7
26 25 26 27 28 29 32 31 31 30 28 28 26 24 26 26 26 25 21 20 16 14 14 11 6 4 1 2 2 2 4 4 5
26 24 22 22 29 28 30 32 30 30 28 27 28 26 24 23 22 21 18 15 13 11 13 11 9 7 13 14 14 13 8 5 4
25 23 22 24 27 27 28 28 29 30 30 28 25 22 21 20 20 19 18 15 13 11 10 9 10 10 13 14 13 13 12 11 9
28 26 25 26 29 28 29 32 33 33 31 30 24 20 18 18 17 17 16 15 14 12 11 10 10 9 9 11 12 12 11 11 10
31 30 30 30 32 34 36 36 34 32 31 26 24 14 13 16 17 17 17 16 15 14 12 12 11 10 9 8 7 7 7 9 8
31 31 32 33 34 36 36 37 36 37 35 30 17 11 8 19 16 18 18 17 16 14 13 11 10 9 8 7 7 6 5 3 4
33 32 32 33 35 36 37 37 36 35 35 33 22 19 15 11 13 18 19 19 17 16 13 12 10 9 8 7 6 6 6 6 6
34 35 36 36 36 37 37 38 36 33 34 34 28 20 16 18 15 17 22 21 18 17 15 13 11 9 9 8 7 6 6 6 7
Wind_Direction
158 156 163 151 149 150 149 150 146 143 141 136 132 133 132 114 121 121 125 135 130 129 129 123 110 96 90 91 100 109 95 94 89
154 159 162 167 155 150 152 150 147 141 139 137 134 134 129 122 120 120 126 135 136 130 128 121 109 104 95 94 99 102 105 106 100
155 155 154 154 157 156 155 151 144 143 144 141 140 140 134 123 123 131 129 127 136 130 121 114 108 107 99 96 94 101 97 95 93
166 157 155 152 150 150 150 150 150 150 147 142 142 144 133 123 123 124 136 140 135 130 121 116 115 114 111 112 109 106 99 92 87
164 158 157 157 158 163 164 157 156 152 147 145 144 144 130 116 118 128 135 142 141 136 131 125 121 117 117 113 115 115 109 99 90
180 172 166 166 168 173 173 164 158 157 153 149 150 155 143 135 131 136 140 139 139 134 129 125 124 125 124 121 120 119 116 113 100
174 173 168 163 175 179 181 168 163 158 151 150 154 150 139 136 125 128 132 129 133 132 128 124 120 118 114 110 106 109 111 116 109
176 177 176 175 184 178 169 170 169 167 163 161 165 157 149 138 128 126 127 132 127 126 132 131 126 128 128 127 124 116 108 107 117
186 186 187 190 191 182 177 178 177 175 172 170 167 164 157 144 132 125 140 132 130 134 140 141 149 148 144 132 130 136 134 126 117
186 187 190 191 191 190 182 182 181 182 181 179 172 158 154 152 147 135 140 134 147 143 143 131 147 169 181 159 145 127 144 147 158
190 192 192 193 190 195 192 186 186 184 180 174 172 167 167 169 163 163 153 151 148 141 121 142 176 184 204 184 167 170 170 176 166
194 196 198 199 193 190 191 187 186 186 177 177 173 169 163 161 172 174 172 175 160 164 142 145 171 180 198 206 208 207 213 206 199
199 201 205 204 201 191 190 189 184 183 178 173 169 155 154 156 161 167 172 169 172 187 149 135 169 206 236 104 161 175 211 206 212
202 201 204 204 203 197 198 186 189 181 171 169 167 166 164 165 164 167 174 180 181 186 209 219 205 175 102 94 90 88 93 104 117
201 202 206 204 199 199 192 188 174 174 172 170 167 166 168 171 175 179 188 192 193 188 175 174 181 181 122 104 95 88 84 82 83
200 206 206 204 196 195 190 185 185 180 179 174 162 158 163 167 170 173 176 176 175 175 170 164 154 152 159 146 116 93 83 78 75
200 203 205 204 197 192 191 195 191 186 179 179 167 147 156 164 167 166 169 172 172 172 170 166 162 161 160 158 161 151 106 79 68
201 201 204 204 201 200 199 199 204 195 188 185 174 156 167 172 171 173 172 173 174 174 174 172 172 173 174 179 186 193 194 159 69
200 201 202 203 202 202 202 202 202 204 197 191 190 188 190 168 174 183 182 179 180 183 184 184 187 191 199 210 222 236 247 256 269
198 199 200 202 204 204 205 202 202 203 201 197 194 192 187 186 176 181 191 190 189 190 192 195 197 201 210 222 229 243 263 277 288